Pagrindinis puslapis
METAR-TAF:

METAR-TAF

Oro uostai :

Saint Catherine, Egiptas

platuma: 28-41-07N, ilguma: 034-03-45E, Aukštis: 1331 m

METAR: trūkstamas

Laikas: 06:28 (04:28 UTC)

Prognozė

Ataskaita buvo paskelbta 5 valandos ir 28 minutes, ne 23:00 UTC
Prognozė galioja nuo 30 metu 00 UTC su 31 metu 06 UTC
Vėjas 10 kt iš Vakarų
Matomumas 10 km arba daugiau
nėra debesų žemiau 1500 m ir nėra kamuolinių lietaus debesų

TAF: HESC 292300Z 3000/3106 28010KT CAVOK

Orai ataskaitas ir orų prognozės (METAR, TAF).

turimą stotys yra geltonos ir raudonos taškus žemėlapyje.

Perkelti pele per norėdami pamatyti stoties vardą.

Tada spustelėkite, norėdami matyti oro stebėjimo ir prognozės.

Norėdami pakeisti žemėlapį: spustelėkite ant žalios mygtukų su juodo kryžiaus žemyn,; žalią mygtuką su brūkšneliu, jei norite nutolinti; arba žalių rodyklių gretimoms žemėlapius.


METAR-TAF: